| time (UTC) | temp F | wind direction | speed MPH | gust MPH | rain 1hr in | rain 24hr in | rain mn in | humidity % | barometer mb |
| 20260505051043 | 68 | 135 | 2.0 | 5.0 | 0.00 | 0.00 | 0.00 | 60 | 1010.9 |
| 20260505050541 | 68 | 129 | 1.0 | 5.0 | 0.00 | 0.00 | 0.00 | 60 | 1010.7 |
| 20260505041509 | 67 | 145 | 0.0 | 1.0 | 0.00 | 0.00 | 0.00 | 60 | 1011.1 |
| 20260505041006 | 67 | 131 | 0.0 | 0.0 | 0.00 | 0.00 | 0.00 | 61 | 1011.1 |
| 20260505040503 | 68 | 214 | 0.0 | 3.0 | 0.00 | 0.00 | 0.00 | 59 | 1011.0 |
| 20260505040000 | 68 | 111 | 0.0 | 1.0 | 0.00 | 0.11 | 0.11 | 59 | 1011.2 |
| 20260505035456 | 67 | 130 | 0.0 | 0.0 | 0.00 | 0.11 | 0.11 | 60 | 1011.2 |
| 20260505034953 | 68 | 128 | 0.0 | 0.0 | 0.00 | 0.11 | 0.11 | 60 | 1011.5 |
| 20260505034449 | 68 | 98 | 0.0 | 0.0 | 0.00 | 0.11 | 0.11 | 59 | 1011.5 |
| 20260505033947 | 68 | 127 | 0.0 | 0.0 | 0.00 | 0.11 | 0.11 | 59 | 1011.2 |
| 20260505033443 | 68 | 140 | 0.0 | 0.0 | 0.00 | 0.11 | 0.11 | 59 | 1011.2 |
| 20260505032942 | 68 | 135 | 0.0 | 0.0 | 0.00 | 0.11 | 0.11 | 59 | 1011.4 |
| 20260505032439 | 68 | 133 | 0.0 | 0.0 | 0.00 | 0.11 | 0.11 | 58 | 1011.4 |
| 20260505031935 | 68 | 137 | 0.0 | 1.0 | 0.00 | 0.11 | 0.11 | 58 | 1011.2 |
| 20260505031432 | 68 | 133 | 0.0 | 0.0 | 0.00 | 0.11 | 0.11 | 58 | 1011.2 |
| 20260505030929 | 68 | 140 | 0.0 | 0.0 | 0.00 | 0.11 | 0.11 | 57 | 1011.4 |
| 20260505030425 | 68 | 123 | 0.0 | 0.0 | 0.00 | 0.11 | 0.11 | 58 | 1011.2 |
| 20260505025920 | 69 | 127 | 0.0 | 0.0 | 0.00 | 0.11 | 0.11 | 57 | 1011.2 |
| 20260505025418 | 69 | 121 | 0.0 | 0.0 | 0.00 | 0.11 | 0.11 | 57 | 1011.0 |
| 20260505024917 | 69 | 145 | 0.0 | 0.0 | 0.00 | 0.11 | 0.11 | 57 | 1011.0 |
| 20260505024414 | 69 | 134 | 0.0 | 0.0 | 0.00 | 0.11 | 0.11 | 57 | 1010.8 |
| 20260505023911 | 69 | 129 | 0.0 | 0.0 | 0.00 | 0.11 | 0.11 | 59 | 1010.9 |
| 20260505023408 | 69 | 122 | 0.0 | 0.0 | 0.00 | 0.11 | 0.11 | 58 | 1010.6 |
| 20260505022905 | 69 | 128 | 0.0 | 0.0 | 0.00 | 0.11 | 0.11 | 58 | 1010.4 |
| 20260505022402 | 69 | 129 | 0.0 | 0.0 | 0.00 | 0.11 | 0.11 | 57 | 1010.5 |
| 20260505021859 | 69 | 131 | 0.0 | 1.0 | 0.00 | 0.11 | 0.11 | 56 | 1010.7 |
| 20260505021355 | 70 | 125 | 0.0 | 0.0 | 0.00 | 0.11 | 0.11 | 56 | 1010.5 |
| 20260505020852 | 70 | 127 | 0.0 | 0.0 | 0.00 | 0.11 | 0.11 | 56 | 1010.2 |
| 20260505020347 | 70 | 120 | 0.0 | 0.0 | 0.00 | 0.11 | 0.11 | 56 | 1010.2 |
| 20260505015844 | 71 | 134 | 0.0 | 1.0 | 0.00 | 0.11 | 0.11 | 55 | 1010.0 |
| 20260505015341 | 71 | 127 | 0.0 | 2.0 | 0.00 | 0.11 | 0.11 | 55 | 1010.0 |
| 20260505014839 | 71 | 129 | 0.0 | 1.0 | 0.00 | 0.11 | 0.11 | 56 | 1009.8 |
| 20260505014335 | 71 | 139 | 0.0 | 1.0 | 0.00 | 0.11 | 0.11 | 54 | 1009.8 |
| 20260505013832 | 71 | 138 | 1.0 | 2.0 | 0.00 | 0.11 | 0.11 | 54 | 1009.6 |
| 20260505013329 | 71 | 128 | 0.0 | 1.0 | 0.00 | 0.11 | 0.11 | 54 | 1009.8 |
| 20260505012828 | 72 | 187 | 3.0 | 3.0 | 0.00 | 0.11 | 0.11 | 53 | 1009.6 |
| 20260505012325 | 72 | 148 | 1.0 | 3.0 | 0.00 | 0.11 | 0.11 | 53 | 1009.7 |
| 20260505011821 | 72 | 146 | 0.0 | 5.0 | 0.00 | 0.11 | 0.11 | 53 | 1009.3 |
| 20260505011318 | 72 | 153 | 3.0 | 3.0 | 0.00 | 0.11 | 0.11 | 53 | 1009.2 |
| 20260505010814 | 72 | 191 | 4.0 | 5.0 | 0.00 | 0.11 | 0.11 | 53 | 1009.3 |
| 20260505010310 | 73 | 104 | 2.0 | 5.0 | 0.00 | 0.11 | 0.11 | 53 | 1009.1 |
| 20260505005806 | 72 | 131 | 4.0 | 7.0 | 0.00 | 0.11 | 0.11 | 53 | 1009.3 |
| 20260505005304 | 73 | 112 | 0.0 | 1.0 | 0.00 | 0.11 | 0.11 | 52 | 1009.3 |
| 20260505004801 | 73 | 141 | 0.0 | 1.0 | 0.00 | 0.11 | 0.11 | 51 | 1009.4 |
| 20260505004256 | 73 | 131 | 2.0 | 6.0 | 0.00 | 0.11 | 0.11 | 51 | 1009.3 |
| 20260505003754 | 74 | 214 | 2.0 | 5.0 | 0.00 | 0.11 | 0.11 | 51 | 1009.4 |
| 20260505003252 | 74 | 135 | 2.0 | 5.0 | 0.00 | 0.11 | 0.11 | 50 | 1009.5 |
| 20260505002748 | 74 | 139 | 0.0 | 3.0 | 0.00 | 0.11 | 0.11 | 50 | 1009.4 |
| 20260505002245 | 74 | 129 | 1.0 | 3.0 | 0.00 | 0.11 | 0.11 | 49 | 1009.2 |
| 20260505001743 | 74 | 139 | 1.0 | 1.0 | 0.00 | 0.11 | 0.11 | 49 | 1009.5 |
| 20260505001240 | 75 | 189 | 1.0 | 2.0 | 0.00 | 0.11 | 0.11 | 49 | 1009.4 |
| 20260505000737 | 75 | 103 | 1.0 | 5.0 | 0.00 | 0.11 | 0.11 | 48 | 1009.7 |
| 20260505000235 | 75 | 96 | 2.0 | 7.0 | 0.00 | 0.11 | 0.11 | 48 | 1009.6 |
| 20260504235731 | 76 | 125 | 1.0 | 2.0 | 0.00 | 0.11 | 0.11 | 47 | 1009.3 |
| 20260504235227 | 76 | 246 | 2.0 | 5.0 | 0.00 | 0.11 | 0.11 | 47 | 1009.4 |
| 20260504234725 | 76 | 186 | 1.0 | 5.0 | 0.00 | 0.11 | 0.11 | 47 | 1009.2 |
| 20260504234222 | 77 | 142 | 3.0 | 9.0 | 0.00 | 0.11 | 0.11 | 47 | 1009.4 |
| 20260504233718 | 77 | 155 | 2.0 | 5.0 | 0.00 | 0.11 | 0.11 | 46 | 1009.6 |
| 20260504233214 | 77 | 140 | 1.0 | 6.0 | 0.00 | 0.11 | 0.11 | 47 | 1009.7 |
| 20260504232711 | 77 | 158 | 5.0 | 8.0 | 0.00 | 0.11 | 0.11 | 46 | 1009.7 |
| 20260504232208 | 76 | 136 | 2.0 | 3.0 | 0.00 | 0.11 | 0.11 | 47 | 1009.8 |
| 20260504231705 | 76 | 117 | 2.0 | 5.0 | 0.00 | 0.11 | 0.11 | 47 | 1009.8 |
| 20260504231201 | 76 | 121 | 1.0 | 2.0 | 0.00 | 0.11 | 0.11 | 48 | 1009.7 |
| 20260504230657 | 77 | 146 | 4.0 | 7.0 | 0.00 | 0.11 | 0.11 | 47 | 1010.2 |
| 20260504230156 | 77 | 124 | 2.0 | 3.0 | 0.00 | 0.11 | 0.11 | 46 | 1010.2 |
| 20260504225654 | 77 | 140 | 2.0 | 6.0 | 0.00 | 0.11 | 0.11 | 46 | 1010.3 |
| 20260504225150 | 77 | 128 | 4.0 | 10.0 | 0.00 | 0.11 | 0.11 | 46 | 1010.7 |
| 20260504224647 | 77 | 150 | 3.0 | 6.0 | 0.00 | 0.11 | 0.11 | 45 | 1010.6 |
| 20260504224144 | 77 | 218 | 2.0 | 6.0 | 0.00 | 0.11 | 0.11 | 45 | 1010.8 |
| 20260504223641 | 77 | 192 | 2.0 | 5.0 | 0.00 | 0.11 | 0.11 | 46 | 1010.9 |
| 20260504223137 | 77 | 146 | 2.0 | 8.0 | 0.00 | 0.11 | 0.11 | 45 | 1010.8 |
| 20260504222634 | 78 | 167 | 4.0 | 8.0 | 0.00 | 0.11 | 0.11 | 44 | 1011.0 |
| 20260504222131 | 78 | 215 | 2.0 | 6.0 | 0.00 | 0.11 | 0.11 | 43 | 1011.0 |
| 20260504221628 | 78 | 187 | 3.0 | 9.0 | 0.00 | 0.11 | 0.11 | 45 | 1010.9 |
| 20260504221125 | 79 | 228 | 7.0 | 13.0 | 0.00 | 0.11 | 0.11 | 43 | 1010.9 |
| 20260504220621 | 79 | 120 | 6.0 | 7.0 | 0.00 | 0.11 | 0.11 | 44 | 1011.0 |
| 20260504220120 | 80 | 202 | 3.0 | 14.0 | 0.00 | 0.11 | 0.11 | 43 | 1011.1 |
| 20260504215615 | 80 | 248 | 9.0 | 11.0 | 0.00 | 0.11 | 0.11 | 42 | 1011.1 |
| 20260504215113 | 80 | 135 | 1.0 | 7.0 | 0.00 | 0.11 | 0.11 | 43 | 1011.1 |
| 20260504214609 | 80 | 220 | 3.0 | 11.0 | 0.00 | 0.11 | 0.11 | 44 | 1011.0 |
| 20260504214105 | 80 | 182 | 3.0 | 9.0 | 0.00 | 0.11 | 0.11 | 45 | 1011.1 |
| 20260504213601 | 80 | 193 | 1.0 | 8.0 | 0.00 | 0.11 | 0.11 | 47 | 1010.9 |
| 20260504213059 | 80 | 200 | 4.0 | 9.0 | 0.00 | 0.11 | 0.11 | 47 | 1010.9 |
| 20260504212554 | 80 | 273 | 3.0 | 5.0 | 0.00 | 0.11 | 0.11 | 46 | 1010.9 |
| 20260504212052 | 79 | 170 | 5.0 | 8.0 | 0.00 | 0.11 | 0.11 | 47 | 1011.2 |
| 20260504211549 | 79 | 195 | 5.0 | 8.0 | 0.00 | 0.11 | 0.11 | 45 | 1011.4 |
| 20260504211045 | 79 | 108 | 5.0 | 10.0 | 0.00 | 0.11 | 0.11 | 48 | 1011.3 |
| 20260504210543 | 79 | 183 | 2.0 | 7.0 | 0.00 | 0.11 | 0.11 | 48 | 1011.3 |
| 20260504210039 | 79 | 149 | 3.0 | 7.0 | 0.00 | 0.11 | 0.11 | 47 | 1011.6 |
| 20260504205537 | 79 | 214 | 2.0 | 9.0 | 0.00 | 0.11 | 0.11 | 46 | 1011.7 |
| 20260504205035 | 80 | 137 | 10.0 | 11.0 | 0.00 | 0.11 | 0.11 | 46 | 1011.5 |
| 20260504204533 | 80 | 151 | 2.0 | 9.0 | 0.00 | 0.11 | 0.11 | 46 | 1011.6 |
| 20260504204032 | 80 | 174 | 2.0 | 10.0 | 0.00 | 0.11 | 0.11 | 45 | 1011.8 |
| 20260504203529 | 80 | 244 | 4.0 | 8.0 | 0.00 | 0.11 | 0.11 | 44 | 1011.4 |
| 20260504203027 | 80 | 263 | 6.0 | 11.0 | 0.00 | 0.11 | 0.11 | 43 | 1011.6 |
| 20260504202522 | 81 | 178 | 3.0 | 8.0 | 0.00 | 0.11 | 0.11 | 43 | 1011.5 |
| 20260504202019 | 81 | 206 | 3.0 | 7.0 | 0.00 | 0.11 | 0.11 | 41 | 1011.3 |
| 20260504201516 | 80 | 199 | 1.0 | 8.0 | 0.00 | 0.11 | 0.11 | 43 | 1011.5 |
| 20260504201014 | 81 | 300 | 8.0 | 9.0 | 0.00 | 0.11 | 0.11 | 42 | 1011.4 |
| 20260504200510 | 80 | 211 | 4.0 | 9.0 | 0.00 | 0.11 | 0.11 | 42 | 1011.5 |
| 20260504200007 | 81 | 324 | 8.0 | 18.0 | 0.00 | 0.11 | 0.11 | 42 | 1011.5 |
| 20260504195503 | 81 | 253 | 7.0 | 9.0 | 0.00 | 0.11 | 0.11 | 42 | 1011.8 |
| 20260504195000 | 81 | 174 | 2.0 | 6.0 | 0.00 | 0.11 | 0.11 | 43 | 1011.7 |
| 20260504194455 | 81 | 191 | 3.0 | 13.0 | 0.00 | 0.11 | 0.11 | 42 | 1011.8 |
| 20260504193951 | 80 | 210 | 3.0 | 8.0 | 0.00 | 0.11 | 0.11 | 43 | 1011.7 |
| 20260504193449 | 81 | 49 | 2.0 | 10.0 | 0.00 | 0.11 | 0.11 | 44 | 1011.7 |
| 20260504192948 | 81 | 295 | 3.0 | 8.0 | 0.00 | 0.11 | 0.11 | 44 | 1011.8 |
| 20260504192444 | 81 | 107 | 1.0 | 6.0 | 0.00 | 0.11 | 0.11 | 43 | 1011.9 |
| 20260504191943 | 81 | 115 | 3.0 | 6.0 | 0.00 | 0.11 | 0.11 | 43 | 1012.1 |
| 20260504191441 | 80 | 169 | 2.0 | 8.0 | 0.00 | 0.11 | 0.11 | 45 | 1012.1 |
| 20260504190936 | 80 | 288 | 5.0 | 7.0 | 0.00 | 0.11 | 0.11 | 45 | 1012.2 |
| 20260504190432 | 80 | 131 | 3.0 | 9.0 | 0.00 | 0.11 | 0.11 | 44 | 1012.4 |
| 20260504185929 | 80 | 112 | 3.0 | 7.0 | 0.00 | 0.11 | 0.11 | 47 | 1012.4 |
| 20260504185426 | 80 | 146 | 3.0 | 5.0 | 0.00 | 0.11 | 0.11 | 47 | 1012.4 |
| 20260504184921 | 80 | 127 | 3.0 | 9.0 | 0.00 | 0.11 | 0.11 | 48 | 1012.6 |
| 20260504184418 | 79 | 146 | 3.0 | 7.0 | 0.00 | 0.11 | 0.11 | 46 | 1012.6 |
| 20260504183914 | 79 | 138 | 2.0 | 9.0 | 0.00 | 0.11 | 0.11 | 49 | 1012.7 |
| 20260504183411 | 80 | 286 | 3.0 | 7.0 | 0.00 | 0.11 | 0.11 | 48 | 1012.7 |
| 20260504182909 | 80 | 209 | 1.0 | 5.0 | 0.00 | 0.11 | 0.11 | 48 | 1012.6 |
| 20260504182406 | 79 | 134 | 0.0 | 10.0 | 0.00 | 0.11 | 0.11 | 51 | 1012.6 |
| 20260504181903 | 80 | 246 | 2.0 | 9.0 | 0.00 | 0.11 | 0.11 | 49 | 1012.6 |
| 20260504181400 | 79 | 247 | 2.0 | 3.0 | 0.00 | 0.11 | 0.11 | 52 | 1012.6 |
| 20260504180859 | 79 | 110 | 1.0 | 5.0 | 0.00 | 0.11 | 0.11 | 50 | 1012.8 |
| 20260504180357 | 78 | 151 | 1.0 | 6.0 | 0.00 | 0.11 | 0.11 | 50 | 1012.6 |
| 20260504175855 | 78 | 281 | 1.0 | 11.0 | 0.00 | 0.11 | 0.11 | 52 | 1012.6 |
| 20260504175351 | 77 | 185 | 3.0 | 8.0 | 0.00 | 0.11 | 0.11 | 52 | 1012.6 |
| 20260504174849 | 77 | 140 | 3.0 | 8.0 | 0.00 | 0.11 | 0.11 | 53 | 1012.6 |
| 20260504174347 | 77 | 185 | 7.0 | 9.0 | 0.00 | 0.11 | 0.11 | 50 | 1012.5 |
| 20260504173843 | 76 | 193 | 3.0 | 6.0 | 0.00 | 0.11 | 0.11 | 51 | 1012.6 |
| 20260504173340 | 75 | 186 | 3.0 | 9.0 | 0.00 | 0.11 | 0.11 | 53 | 1012.7 |
| 20260504172837 | 76 | 283 | 3.0 | 6.0 | 0.00 | 0.11 | 0.11 | 51 | 1012.6 |
| 20260504172334 | 77 | 247 | 4.0 | 7.0 | 0.00 | 0.11 | 0.11 | 51 | 1012.8 |
| 20260504171829 | 77 | 132 | 2.0 | 5.0 | 0.00 | 0.11 | 0.11 | 52 | 1012.6 |
| 20260504171327 | 77 | 279 | 7.0 | 9.0 | 0.00 | 0.11 | 0.11 | 51 | 1012.9 |
| 20260504170824 | 77 | 232 | 1.0 | 10.0 | 0.00 | 0.11 | 0.11 | 53 | 1012.8 |
| 20260504170321 | 76 | 231 | 3.0 | 9.0 | 0.00 | 0.11 | 0.11 | 53 | 1012.8 |
| 20260504160239 | 72 | 269 | 2.0 | 8.0 | 0.00 | 0.11 | 0.11 | 59 | 1013.3 |
| 20260504150705 | 64 | 162 | 7.0 | 11.0 | 0.00 | 0.11 | 0.11 | 68 | 1013.7 |
| 20260504150201 | 65 | 172 | 8.0 | 10.0 | 0.00 | 0.11 | 0.11 | 66 | 1014.0 |
| 20260504141130 | 60 | 181 | 3.0 | 8.0 | 0.00 | 0.11 | 0.11 | 80 | 1014.1 |
| 20260504140627 | 59 | 242 | 5.0 | 6.0 | 0.00 | 0.11 | 0.11 | 82 | 1014.1 |
| 20260504140123 | 58 | 142 | 1.0 | 11.0 | 0.00 | 0.11 | 0.11 | 84 | 1014.3 |
| 20260504130551 | 56 | 118 | 3.0 | 5.0 | 0.00 | 0.11 | 0.11 | 93 | 1014.5 |
| 20260504110438 | 52 | 119 | 0.0 | 1.0 | 0.05 | 0.09 | 0.09 | 91 | 1014.5 |
| 20260504100401 | 52 | 148 | 1.0 | 2.0 | 0.00 | 0.08 | 0.08 | 90 | 1015.3 |
| 20260504081754 | 57 | 151 | 1.0 | 3.0 | 0.00 | 0.00 | 0.00 | 67 | 1014.5 |
| 20260504081251 | 57 | 154 | 1.0 | 3.0 | 0.00 | 0.00 | 0.00 | 66 | 1014.7 |
| 20260504080747 | 57 | 151 | 7.0 | 8.0 | 0.00 | 0.00 | 0.00 | 66 | 1014.5 |
| 20260504080243 | 57 | 144 | 3.0 | 7.0 | 0.00 | 0.00 | 0.00 | 66 | 1014.6 |
| 20260504070211 | 57 | 115 | 2.0 | 3.0 | 0.00 | 0.00 | 0.00 | 64 | 1015.3 |
| 20260504060132 | 57 | 131 | 1.0 | 2.0 | 0.00 | 0.00 | 0.00 | 63 | 1015.8 |